This is the latest recevied weather packets stored in our database for station/object KD0ISH. If no packets are shown the sender has not sent any weather packets the latest 1 day(s).
| Time | Temp. | Humidity | Pressure | Rain* | Wind** | Luminosity | Snow |
|---|---|---|---|---|---|---|---|
| 1778044988 | 6.67° C | 98% | 1015.6 hPa | 0 mm | - | 0 W/m² | - |
| 1778044381 | 6.67° C | 97% | 1015.2 hPa | 0 mm | - | 0 W/m² | - |
| 1778044079 | 6.67° C | 98% | 1015.2 hPa | 0 mm | - | 0 W/m² | - |
| 1778043472 | 6.67° C | 97% | 1014.9 hPa | 0 mm | - | 0 W/m² | - |
| 1778042867 | 6.67° C | 97% | 1015.2 hPa | 0 mm | - | 0 W/m² | - |
| 1778041959 | 6.67° C | 97% | 1014.9 hPa | 0 mm | - | 0 W/m² | - |
| 1778041356 | 6.67° C | 97% | 1014.9 hPa | 1.78 mm | - | 0 W/m² | - |
| 1778041054 | 6.67° C | 97% | 1015 hPa | 1.78 mm | - | 0 W/m² | - |
| 1778040750 | 6.67° C | 96% | 1014.6 hPa | 1.78 mm | - | 0 W/m² | - |
| 1778040448 | 6.67° C | 96% | 1014.6 hPa | 1.27 mm | - | 0 W/m² | - |
| 1778040145 | 6.67° C | 96% | 1014.7 hPa | 1.27 mm | - | 0 W/m² | - |
| 1778039235 | 6.67° C | 96% | 1014.7 hPa | 1.27 mm | - | 0 W/m² | - |
| 1778038630 | 6.67° C | 96% | 1014.7 hPa | 0 mm | - | 0 W/m² | - |
| 1778038023 | 6.67° C | 95% | 1014.9 hPa | 3.05 mm | - | 0 W/m² | - |
| 1778037721 | 7.22° C | 95% | 1014.6 hPa | 6.1 mm | - | 0 W/m² | - |
| 1778037417 | 7.22° C | 94% | 1014.5 hPa | 6.1 mm | - | 0 W/m² | - |
| 1778036813 | 7.22° C | 94% | 1014.5 hPa | 1.78 mm | - | 0 W/m² | - |
| 1778036510 | 7.22° C | 94% | 1014.3 hPa | 0 mm | - | 0 W/m² | - |
| 1778036206 | 7.22° C | 94% | 1015.1 hPa | 0 mm | - | 0 W/m² | - |
| 1778035600 | 7.78° C | 95% | 1014 hPa | 0 mm | - | 0 W/m² | - |
| 1778035296 | 7.78° C | 96% | 1014 hPa | 0 mm | - | 0 W/m² | - |
| 1778034993 | 7.78° C | 96% | 1013.9 hPa | 0 mm | - | 0 W/m² | - |
| 1778034690 | 7.78° C | 96% | 1013.8 hPa | 1.27 mm | - | 0 W/m² | - |
| 1778034387 | 7.78° C | 95% | 1013.9 hPa | 1.27 mm | - | 0 W/m² | - |
| 1778033782 | 7.78° C | 95% | 1013.8 hPa | 0 mm | - | 0 W/m² | - |
* Rain latest hour (hover to see other rain measurements)
** Current wind speed in m/s (hover to see current wind gust speed)